Lid_Strength_Index
2 2 2 2 3 3 3 2 2 2 1 2 1 1 1 2 2 2 2 2 2 2
2 2 2 2 2 2 2 1 2 1 2 2 1 1 2 2 2 2 2 2 3 2
2 2 2 2 2 2 2 1 2 1 2 1 1 1 1 2 2 2 2 2 2 2
2 2 2 2 2 2 2 2 2 1 1 1 1 1 2 2 2 2 2 2 2 2
2 2 2 2 1 2 2 2 2 1 1 1 1 2 1 2 2 2 2 2 2 2
2 2 2 2 1 2 2 2 1 1 1 1 1 1 2 2 2 2 2 2 2 2
2 2 2 2 1 2 2 2 1 1 1 1 1 1 1 1 1 2 2 2 1 1
2 1 2 1 1 2 2 1 1 1 1 2 2 2 2 1 1 1 2 2 2 1
2 2 2 2 2 1 2 1 1 1 2 3 2 8 6 2 1 1 2 2 2 2
2 2 2 2 2 2 2 2 2 2 3 4 4 9 9 7 1 1 2 2 1 1
2 2 2 2 2 2 2 2 2 2 3 4 4 9 10 7 2 1 1 1 1 2
2 2 2 2 2 2 2 2 2 2 3 4 4 9 11 4 1 2 2 1 1 1
2 2 2 2 2 2 2 2 2 2 3 4 4 9 10 5 1 2 3 3 2 6
2 2 2 2 2 2 2 2 2 2 3 2 4 6 10 9 2 2 2 3 3 4